QPF
0.00 0.00 0.01 0.03 0.04 0.03 0.01 0.00 0.01 0.01 0.02 0.01 0.01 0.01 0.02 0.02 0.01 0.03 0.03 0.02 0.01 0.01 0.00 0.05 0.13 0.01 0.00 0.01 0.00 0.00 0.00 0.00 0.02 0.01 0.00 0.00 0.00 0.00 0.00 0.00 0.00 0.00 0.01
0.00 0.00 0.00 0.01 0.01 0.03 0.01 0.01 0.00 0.01 0.01 0.01 0.01 0.01 0.01 0.01 0.01 0.02 0.02 0.01 0.00 0.00 0.00 0.07 0.12 0.00 0.00 0.00 0.00 0.00 0.00 0.00 0.00 0.00 0.00 0.00 0.00 0.00 0.00 0.00 0.00 0.01 0.01
0.00 0.00 0.00 0.01 0.03 0.07 0.13 0.06 0.01 0.00 0.01 0.01 0.01 0.01 0.02 0.01 0.05 0.04 0.01 0.00 0.02 0.00 0.05 0.06 0.09 0.02 0.01 0.01 0.00 0.00 0.00 0.00 0.00 0.00 0.00 0.00 0.00 0.00 0.00 0.00 0.00 0.00 0.00
0.00 0.00 0.00 0.00 0.00 0.01 0.03 0.05 0.01 0.00 0.00 0.00 0.00 0.01 0.02 0.03 0.07 0.03 0.04 0.04 0.02 0.00 0.07 0.09 0.08 0.14 0.04 0.03 0.01 0.00 0.00 0.00 0.00 0.00 0.00 0.00 0.00 0.00 0.00 0.00 0.00 0.00 0.00
0.00 0.00 0.00 0.00 0.00 0.00 0.01 0.04 0.02 0.00 0.00 0.00 0.00 0.00 0.01 0.04 0.05 0.07 0.03 0.07 0.09 0.01 0.02 0.03 0.15 0.16 0.09 0.05 0.00 0.00 0.00 0.00 0.00 0.00 0.00 0.00 0.00 0.00 0.00 0.01 0.02 0.01 0.00
0.00 0.00 0.00 0.00 0.00 0.00 0.00 0.00 0.01 0.00 0.00 0.00 0.00 0.00 0.00 0.02 0.05 0.11 0.09 0.04 0.09 0.06 0.05 0.05 0.15 0.26 0.13 0.07 0.00 0.00 0.00 0.00 0.00 0.00 0.00 0.00 0.00 0.00 0.00 0.01 0.02 0.01 0.01
0.00 0.00 0.00 0.00 0.00 0.00 0.00 0.00 0.00 0.01 0.00 0.00 0.00 0.00 0.00 0.00 0.02 0.07 0.13 0.27 0.16 0.02 0.02 0.03 0.07 0.15 0.07 0.06 0.00 0.01 0.01 0.00 0.00 0.00 0.00 0.00 0.00 0.00 0.00 0.01 0.01 0.02 0.01
0.00 0.00 0.00 0.00 0.00 0.00 0.00 0.00 0.00 0.00 0.00 0.00 0.00 0.00 0.00 0.00 0.00 0.03 0.17 0.75 0.31 0.03 0.04 0.03 0.05 0.05 0.04 0.01 0.01 0.03 0.02 0.00 0.00 0.00 0.00 0.00 0.00 0.00 0.01 0.01 0.00 0.01 0.00
0.00 0.00 0.00 0.00 0.00 0.00 0.00 0.00 0.00 0.00 0.00 0.00 0.00 0.00 0.00 0.00 0.00 0.00 0.12 0.58 0.48 0.29 0.19 0.07 0.04 0.02 0.01 0.00 0.01 0.06 0.05 0.00 0.00 0.00 0.00 0.00 0.00 0.00 0.00 0.00 0.00 0.00 0.00
0.00 0.00 0.00 0.00 0.00 0.00 0.00 0.00 0.00 0.00 0.00 0.00 0.00 0.00 0.00 0.00 0.00 0.00 0.02 0.10 0.20 0.20 0.23 0.13 0.07 0.05 0.01 0.00 0.00 0.04 0.07 0.00 0.00 0.00 0.00 0.00 0.00 0.00 0.00 0.00 0.00 0.01 0.00
0.00 0.00 0.00 0.00 0.00 0.00 0.00 0.00 0.00 0.00 0.00 0.00 0.00 0.00 0.00 0.00 0.00 0.00 0.00 0.00 0.03 0.07 0.09 0.16 0.16 0.07 0.05 0.01 0.00 0.06 0.08 0.02 0.00 0.00 0.00 0.00 0.00 0.00 0.00 0.00 0.00 0.01 0.01
0.00 0.00 0.00 0.00 0.00 0.00 0.00 0.00 0.00 0.00 0.00 0.00 0.00 0.00 0.00 0.00 0.00 0.00 0.00 0.00 0.01 0.18 0.22 0.21 0.61 0.16 0.05 0.02 0.00 0.01 0.09 0.01 0.00 0.00 0.00 0.00 0.01 0.00 0.00 0.00 0.00 0.01 0.01
0.00 0.00 0.00 0.00 0.00 0.00 0.00 0.00 0.00 0.00 0.00 0.00 0.00 0.00 0.00 0.00 0.00 0.00 0.00 0.00 0.00 0.02 0.13 0.30 0.64 0.44 0.04 0.01 0.00 0.01 0.08 0.01 0.00 0.00 0.00 0.00 0.01 0.00 0.00 0.00 0.00 0.01 0.01
0.00 0.00 0.00 0.00 0.00 0.00 0.00 0.00 0.00 0.00 0.00 0.00 0.00 0.00 0.00 0.00 0.00 0.00 0.00 0.00 0.00 0.02 0.03 0.22 0.45 0.34 0.10 0.02 0.00 0.02 0.10 0.02 0.00 0.00 0.00 0.00 0.01 0.01 0.00 0.00 0.00 0.01 0.00
0.00 0.00 0.00 0.00 0.00 0.00 0.00 0.00 0.00 0.00 0.00 0.00 0.00 0.00 0.00 0.00 0.00 0.00 0.00 0.00 0.00 0.01 0.02 0.04 0.18 0.28 0.09 0.04 0.00 0.05 0.06 0.01 0.00 0.00 0.00 0.00 0.00 0.00 0.00 0.00 0.00 0.00 0.01
0.00 0.00 0.00 0.00 0.00 0.00 0.00 0.00 0.00 0.00 0.00 0.00 0.00 0.00 0.00 0.00 0.00 0.00 0.00 0.01 0.00 0.00 0.01 0.02 0.06 0.14 0.10 0.02 0.00 0.03 0.05 0.01 0.00 0.00 0.00 0.00 0.00 0.00 0.00 0.00 0.00 0.00 0.01
0.00 0.00 0.00 0.00 0.00 0.00 0.00 0.00 0.00 0.00 0.00 0.00 0.00 0.00 0.00 0.00 0.00 0.00 0.00 0.01 0.03 0.01 0.01 0.01 0.05 0.07 0.04 0.04 0.00 0.00 0.02 0.02 0.02 0.01 0.00 0.00 0.00 0.00 0.00 0.00 0.00 0.00 0.01
0.00 0.00 0.00 0.00 0.00 0.00 0.00 0.00 0.00 0.00 0.00 0.00 0.00 0.00 0.00 0.00 0.00 0.00 0.00 0.00 0.03 0.05 0.01 0.01 0.03 0.06 0.02 0.02 0.01 0.00 0.00 0.01 0.07 0.08 0.00 0.00 0.00 0.00 0.00 0.00 0.00 0.00 0.01
0.00 0.00 0.00 0.00 0.00 0.00 0.00 0.00 0.00 0.00 0.00 0.00 0.00 0.00 0.00 0.00 0.00 0.00 0.00 0.00 0.00 0.05 0.06 0.01 0.02 0.09 0.05 0.01 0.01 0.01 0.01 0.02 0.13 0.23 0.01 0.00 0.00 0.00 0.00 0.00 0.00 0.01 0.01
0.00 0.00 0.00 0.00 0.00 0.00 0.00 0.00 0.00 0.00 0.00 0.00 0.00 0.00 0.00 0.00 0.00 0.00 0.00 0.00 0.00 0.00 0.07 0.02 0.00 0.03 0.11 0.03 0.03 0.02 0.02 0.04 0.21 0.42 0.09 0.00 0.00 0.00 0.00 0.00 0.00 0.01 0.01
0.00 0.00 0.00 0.00 0.00 0.00 0.00 0.00 0.00 0.00 0.00 0.00 0.00 0.00 0.00 0.00 0.00 0.00 0.00 0.00 0.00 0.00 0.02 0.03 0.00 0.00 0.05 0.15 0.13 0.20 0.06 0.06 0.22 0.36 0.22 0.01 0.00 0.00 0.00 0.00 0.00 0.00 0.01
0.00 0.00 0.00 0.00 0.00 0.00 0.00 0.00 0.00 0.00 0.00 0.00 0.00 0.00 0.00 0.01 0.00 0.00 0.00 0.00 0.00 0.00 0.02 0.01 0.01 0.01 0.02 0.08 0.19 0.25 0.11 0.10 0.17 0.20 0.19 0.12 0.00 0.00 0.00 0.00 0.00 0.00 0.00
0.00 0.00 0.00 0.00 0.00 0.00 0.00 0.00 0.00 0.00 0.00 0.00 0.00 0.00 0.01 0.01 0.05 0.01 0.00 0.00 0.00 0.00 0.01 0.02 0.02 0.02 0.04 0.11 0.15 0.23 0.12 0.03 0.04 0.05 0.03 0.11 0.04 0.00 0.00 0.00 0.00 0.00 0.00
0.00 0.00 0.00 0.00 0.00 0.00 0.00 0.00 0.00 0.00 0.00 0.01 0.02 0.01 0.00 0.00 0.02 0.00 0.00 0.00 0.00 0.00 0.00 0.04 0.03 0.05 0.04 0.11 0.16 0.12 0.06 0.03 0.00 0.01 0.01 0.01 0.09 0.02 0.00 0.00 0.00 0.00 0.00
0.00 0.00 0.00 0.00 0.00 0.00 0.00 0.00 0.00 0.00 0.00 0.00 0.00 0.00 0.00 0.00 0.00 0.00 0.00 0.00 0.00 0.00 0.00 0.04 0.05 0.08 0.07 0.08 0.13 0.11 0.05 0.04 0.02 0.00 0.00 0.00 0.03 0.02 0.00 0.00 0.00 0.00 0.00
0.00 0.00 0.00 0.00 0.00 0.00 0.00 0.00 0.00 0.00 0.00 0.00 0.00 0.00 0.00 0.00 0.00 0.00 0.00 0.00 0.00 0.00 0.00 0.02 0.06 0.10 0.10 0.08 0.09 0.12 0.09 0.04 0.03 0.01 0.00 0.00 0.01 0.01 0.00 0.00 0.00 0.00 0.00
MSLP
1027.04 1026.76 1026.20 1025.08 1024.57 1024.09 1023.49 1022.69 1021.84 1021.36 1020.92 1020.29 1019.62 1018.88 1018.27 1017.84 1017.32 1017.25 1017.08 1016.94 1016.77 1016.59 1016.53 1016.61 1016.76 1016.92 1017.04 1017.23 1017.31 1017.31 1017.24 1017.38 1017.60 1017.96 1017.92 1018.08 1018.30 1018.65 1018.87 1018.96 1019.09 1019.08 1019.07
1027.21 1026.72 1026.02 1025.32 1024.72 1024.38 1023.55 1023.25 1022.31 1021.73 1021.42 1020.89 1020.15 1019.48 1018.82 1018.11 1017.53 1017.32 1017.23 1017.11 1017.00 1016.81 1016.68 1016.72 1017.01 1017.18 1017.37 1017.55 1017.67 1017.71 1017.68 1017.85 1018.03 1018.22 1018.19 1018.27 1018.50 1019.00 1019.24 1019.35 1019.42 1019.33 1019.47
1027.00 1026.55 1026.05 1025.04 1024.56 1024.37 1024.07 1023.99 1022.83 1022.20 1021.88 1021.48 1020.79 1020.07 1019.39 1018.82 1018.13 1017.53 1017.26 1017.12 1017.27 1017.15 1016.99 1016.94 1017.09 1017.26 1017.68 1017.80 1017.87 1018.02 1018.14 1018.31 1018.44 1018.53 1018.65 1018.76 1018.98 1019.25 1019.57 1019.73 1019.75 1019.75 1019.96
1027.04 1026.56 1026.08 1025.18 1024.58 1024.65 1024.52 1023.85 1023.51 1022.97 1022.34 1021.80 1021.25 1020.67 1020.07 1019.59 1018.85 1018.09 1017.66 1017.36 1017.36 1017.40 1017.33 1017.12 1017.18 1017.45 1017.78 1017.99 1018.16 1018.20 1018.40 1018.51 1018.60 1018.61 1018.90 1019.14 1019.36 1019.62 1019.85 1020.01 1020.15 1020.26 1020.42
1027.22 1026.75 1026.14 1025.63 1025.19 1024.75 1024.18 1023.40 1024.08 1023.81 1022.68 1022.32 1021.65 1021.37 1020.68 1020.27 1019.59 1018.88 1018.27 1017.88 1017.59 1017.53 1017.48 1017.40 1017.47 1017.62 1017.92 1018.13 1018.32 1018.44 1018.54 1018.68 1018.72 1018.69 1019.06 1019.39 1019.67 1019.86 1020.00 1020.26 1020.46 1020.67 1020.91
1027.20 1026.81 1026.31 1025.84 1025.45 1024.84 1024.37 1024.29 1024.47 1023.98 1023.51 1022.33 1022.21 1021.90 1021.14 1020.95 1020.32 1019.59 1018.89 1018.42 1017.89 1017.67 1017.68 1017.68 1017.62 1017.84 1017.99 1018.19 1018.37 1018.50 1018.61 1018.78 1018.97 1019.07 1019.31 1019.53 1019.93 1020.03 1020.22 1020.50 1020.69 1021.02 1021.28
1027.27 1026.91 1026.50 1026.12 1025.97 1025.64 1025.17 1024.90 1024.74 1024.52 1023.55 1022.97 1022.71 1022.18 1021.96 1021.67 1020.99 1020.31 1019.51 1019.00 1018.06 1017.88 1017.91 1017.97 1018.10 1018.10 1018.20 1018.11 1018.39 1018.52 1018.58 1018.84 1019.18 1019.35 1019.52 1019.79 1020.05 1020.20 1020.44 1020.78 1021.08 1021.27 1021.53
1027.25 1027.16 1026.79 1026.36 1026.24 1026.20 1025.93 1025.43 1024.77 1023.89 1023.75 1023.56 1022.36 1023.07 1022.91 1022.03 1021.71 1020.78 1020.08 1019.35 1018.60 1018.45 1018.26 1017.97 1018.19 1018.22 1018.30 1018.19 1018.36 1018.46 1018.72 1018.84 1019.20 1019.47 1019.75 1019.90 1020.07 1020.24 1020.60 1020.98 1021.33 1021.61 1021.82
1027.34 1027.23 1026.90 1026.61 1026.45 1026.34 1026.02 1025.43 1025.04 1024.49 1023.87 1023.16 1023.49 1023.98 1023.22 1022.18 1022.02 1021.34 1020.63 1019.70 1018.84 1018.76 1018.17 1017.98 1018.18 1018.16 1018.09 1018.22 1018.25 1018.56 1018.88 1018.95 1019.40 1019.61 1019.84 1020.03 1020.06 1020.27 1020.65 1021.15 1021.58 1021.86 1022.06
1027.51 1027.24 1026.85 1026.55 1026.39 1026.39 1026.22 1025.58 1025.26 1024.91 1024.75 1024.56 1024.60 1024.28 1023.59 1022.30 1022.29 1021.78 1021.07 1020.28 1019.35 1018.61 1017.81 1017.64 1017.94 1017.93 1018.09 1018.20 1018.28 1018.60 1018.95 1019.06 1019.50 1019.66 1019.95 1020.10 1020.20 1020.46 1020.70 1021.24 1021.64 1022.04 1022.25
1027.58 1027.02 1026.42 1026.24 1026.19 1026.16 1025.98 1025.67 1025.42 1025.21 1024.89 1024.73 1024.38 1023.96 1023.86 1022.35 1022.48 1022.27 1021.43 1020.82 1019.85 1019.11 1018.57 1018.02 1017.72 1017.74 1017.99 1018.16 1018.36 1018.61 1018.87 1019.16 1019.42 1019.66 1020.00 1020.10 1020.23 1020.54 1020.83 1021.23 1021.69 1022.04 1022.42
1026.99 1026.70 1026.23 1025.99 1025.87 1025.81 1025.67 1025.74 1025.43 1025.22 1025.21 1024.82 1024.60 1024.22 1023.63 1023.21 1022.88 1022.87 1021.73 1021.13 1020.25 1019.44 1018.46 1018.15 1017.59 1017.47 1017.86 1018.03 1018.40 1018.58 1018.91 1018.99 1019.15 1019.52 1019.96 1020.18 1020.36 1020.60 1021.06 1021.34 1021.71 1022.04 1022.49
1026.05 1026.23 1026.12 1025.79 1025.62 1025.63 1025.59 1025.49 1025.30 1025.06 1024.93 1024.81 1024.44 1024.35 1024.16 1023.73 1023.31 1023.01 1022.06 1021.41 1020.52 1019.67 1019.20 1018.51 1017.76 1017.05 1017.40 1017.84 1018.38 1018.50 1018.55 1018.66 1018.77 1019.18 1019.63 1020.05 1020.35 1020.69 1021.09 1021.42 1021.77 1022.13 1022.56
1025.91 1025.79 1025.76 1025.56 1025.49 1025.54 1025.41 1025.32 1025.03 1024.84 1024.61 1024.49 1024.37 1023.86 1024.37 1024.12 1023.50 1022.82 1022.37 1021.57 1020.99 1020.50 1019.88 1019.29 1018.60 1017.08 1017.02 1017.43 1018.04 1018.32 1018.47 1018.39 1018.86 1018.94 1019.49 1019.91 1020.26 1020.66 1021.05 1021.35 1021.75 1022.17 1022.63
1025.44 1025.37 1025.39 1025.41 1025.27 1025.33 1025.38 1025.28 1024.88 1024.72 1024.39 1024.13 1024.12 1023.78 1023.82 1024.02 1023.63 1022.82 1022.51 1022.08 1021.34 1020.93 1020.18 1019.59 1018.76 1017.64 1017.38 1017.30 1017.73 1017.98 1018.27 1018.33 1018.80 1019.00 1019.48 1019.93 1020.19 1020.59 1020.91 1021.23 1021.66 1022.15 1022.56
1024.51 1024.74 1025.11 1025.24 1025.15 1025.26 1025.32 1025.03 1024.75 1024.50 1024.19 1023.89 1023.73 1023.62 1023.62 1023.72 1023.38 1022.79 1022.60 1022.10 1021.45 1021.09 1020.37 1019.83 1019.08 1018.24 1017.31 1017.45 1017.66 1017.89 1018.18 1018.40 1018.85 1018.99 1019.42 1019.99 1020.29 1020.60 1020.88 1021.11 1021.59 1022.14 1022.51
1023.92 1024.24 1024.59 1025.00 1025.21 1025.32 1025.10 1024.83 1024.70 1024.38 1024.04 1023.84 1023.74 1023.51 1023.47 1023.40 1023.44 1022.97 1022.55 1021.90 1021.61 1021.15 1020.49 1019.71 1019.03 1018.30 1017.59 1017.01 1017.46 1017.73 1018.04 1018.26 1018.72 1019.21 1019.52 1019.92 1020.38 1020.68 1020.99 1021.14 1021.55 1022.02 1022.50
1023.96 1024.27 1024.52 1024.53 1025.28 1025.37 1025.15 1025.05 1024.96 1024.60 1024.24 1023.84 1023.75 1023.69 1023.42 1023.13 1022.92 1022.79 1022.47 1022.10 1021.59 1021.03 1020.45 1019.63 1019.29 1018.38 1017.83 1017.31 1017.22 1017.60 1017.92 1018.08 1018.51 1019.06 1019.59 1019.95 1020.53 1020.77 1021.09 1021.25 1021.60 1022.00 1022.42
1023.46 1023.78 1024.64 1025.07 1025.50 1025.36 1025.18 1025.18 1025.05 1024.67 1024.39 1023.88 1023.70 1023.43 1023.30 1022.90 1022.50 1022.70 1022.38 1022.15 1021.57 1021.10 1020.03 1020.10 1019.52 1018.65 1018.01 1017.23 1017.12 1017.49 1017.96 1018.30 1018.34 1018.99 1019.51 1019.94 1020.57 1020.82 1021.18 1021.33 1021.60 1021.98 1022.38
1023.78 1023.90 1024.47 1025.06 1025.39 1025.31 1025.22 1024.96 1024.64 1024.19 1023.89 1023.96 1023.69 1023.53 1023.12 1022.86 1022.55 1022.67 1022.50 1022.09 1021.51 1020.92 1020.12 1020.34 1019.45 1018.60 1017.80 1017.46 1017.02 1017.41 1017.68 1017.98 1018.25 1018.72 1019.43 1019.71 1020.41 1020.70 1021.09 1021.31 1021.61 1021.90 1022.28
1024.25 1024.40 1024.71 1025.01 1025.24 1025.15 1025.18 1025.07 1024.81 1024.61 1024.31 1023.94 1023.80 1023.34 1023.01 1022.78 1022.75 1022.57 1022.50 1022.27 1021.67 1021.04 1020.77 1020.36 1019.20 1018.48 1017.86 1017.11 1017.07 1017.43 1017.62 1017.71 1018.11 1018.56 1019.01 1019.58 1020.09 1020.44 1020.93 1021.25 1021.58 1021.91 1022.24
1024.80 1024.85 1025.16 1025.27 1025.19 1025.13 1025.11 1025.04 1025.04 1024.87 1024.63 1024.34 1023.91 1023.51 1023.00 1022.98 1022.96 1022.67 1022.61 1022.34 1021.90 1021.26 1021.03 1020.19 1019.37 1019.00 1018.14 1017.23 1016.88 1017.15 1017.64 1018.31 1018.44 1018.72 1018.92 1019.39 1019.77 1020.08 1020.66 1021.05 1021.40 1021.75 1022.10
1025.04 1025.25 1025.23 1025.21 1025.11 1024.99 1024.83 1024.84 1024.75 1024.67 1024.63 1024.42 1024.08 1023.68 1023.16 1023.07 1022.88 1022.84 1022.51 1022.27 1021.89 1021.29 1020.81 1020.36 1019.85 1019.63 1018.72 1017.52 1017.21 1016.79 1017.14 1017.64 1018.38 1018.76 1019.13 1019.09 1019.51 1019.96 1020.32 1020.64 1021.12 1021.37 1021.83
1025.11 1025.04 1025.05 1025.14 1024.98 1024.84 1024.71 1024.88 1024.99 1025.02 1025.13 1024.78 1024.38 1023.82 1023.54 1023.17 1022.77 1022.65 1022.36 1022.20 1021.85 1021.30 1020.80 1020.45 1020.10 1019.32 1018.77 1017.92 1017.24 1016.57 1016.68 1016.70 1017.51 1018.65 1018.93 1019.05 1019.31 1019.68 1019.98 1020.23 1020.74 1021.17 1021.39
1025.09 1025.11 1025.05 1024.99 1024.87 1024.72 1024.72 1024.68 1024.82 1024.97 1024.76 1024.54 1024.23 1023.78 1023.48 1023.30 1022.82 1022.76 1022.44 1022.02 1021.72 1021.19 1020.59 1020.39 1019.67 1019.44 1018.78 1018.30 1017.89 1017.20 1017.13 1016.82 1017.10 1017.49 1018.02 1018.61 1019.13 1019.15 1019.50 1019.63 1020.02 1020.68 1021.01
1025.16 1025.16 1025.04 1024.87 1024.62 1024.68 1024.63 1024.68 1024.66 1024.67 1024.62 1024.52 1024.25 1023.98 1023.66 1023.35 1022.95 1022.67 1022.36 1021.96 1021.51 1021.13 1020.80 1020.41 1020.01 1019.07 1018.69 1018.58 1018.25 1017.84 1017.47 1017.26 1017.29 1017.21 1017.35 1017.90 1018.48 1018.51 1019.13 1019.41 1019.71 1020.02 1020.62
Thickness
5623 5626 5630 5638 5643 5646 5648 5654 5664 5669 5673 5677 5682 5689 5694 5696 5700 5700 5700 5702 5705 5708 5709 5709 5707 5706 5705 5704 5704 5706 5708 5709 5709 5707 5708 5708 5707 5704 5703 5702 5701 5701 5702
5620 5623 5626 5632 5637 5641 5646 5647 5654 5661 5664 5670 5676 5681 5686 5691 5695 5696 5696 5697 5700 5702 5705 5706 5704 5702 5701 5701 5700 5702 5704 5704 5704 5704 5705 5705 5704 5701 5699 5698 5698 5699 5699
5617 5620 5624 5628 5632 5634 5635 5638 5645 5652 5656 5660 5667 5673 5678 5682 5686 5691 5694 5695 5694 5697 5700 5701 5699 5698 5696 5697 5698 5698 5699 5699 5700 5701 5701 5702 5700 5698 5696 5695 5696 5696 5696
5611 5615 5619 5621 5626 5625 5629 5635 5637 5640 5647 5652 5658 5663 5668 5672 5677 5683 5687 5691 5690 5692 5695 5697 5695 5693 5691 5693 5693 5695 5694 5695 5697 5698 5698 5698 5696 5694 5693 5693 5693 5692 5692
5601 5605 5610 5611 5612 5616 5621 5631 5625 5627 5637 5642 5649 5652 5657 5661 5669 5674 5679 5684 5685 5687 5688 5690 5690 5689 5687 5689 5690 5691 5691 5691 5694 5697 5696 5695 5694 5692 5691 5690 5690 5689 5688
5595 5597 5600 5604 5604 5608 5612 5613 5613 5617 5622 5633 5636 5641 5648 5650 5658 5664 5670 5676 5678 5683 5684 5685 5686 5685 5683 5685 5687 5687 5688 5689 5691 5694 5693 5693 5691 5690 5689 5688 5688 5687 5685
5590 5589 5590 5593 5594 5594 5595 5599 5602 5605 5614 5619 5623 5631 5634 5638 5646 5654 5661 5666 5674 5676 5678 5679 5679 5681 5682 5682 5683 5684 5686 5688 5689 5691 5692 5691 5689 5688 5687 5685 5684 5685 5683
5588 5584 5581 5579 5581 5580 5581 5584 5591 5601 5605 5607 5619 5614 5618 5629 5635 5643 5651 5658 5666 5669 5671 5675 5676 5678 5679 5680 5680 5682 5683 5685 5687 5688 5689 5688 5687 5687 5685 5684 5682 5681 5681
5583 5581 5579 5574 5570 5569 5569 5574 5580 5585 5593 5602 5602 5599 5610 5621 5625 5631 5640 5651 5658 5661 5668 5671 5672 5674 5676 5677 5678 5679 5680 5683 5683 5685 5686 5686 5686 5686 5684 5682 5679 5679 5678
5573 5572 5572 5569 5563 5559 5557 5560 5566 5571 5572 5578 5581 5587 5596 5611 5615 5621 5629 5640 5648 5657 5666 5669 5669 5671 5672 5673 5675 5676 5677 5678 5680 5682 5683 5685 5685 5684 5684 5680 5678 5677 5676
5564 5565 5566 5562 5558 5550 5545 5546 5550 5554 5557 5563 5571 5579 5584 5601 5604 5609 5619 5626 5636 5648 5655 5663 5666 5667 5667 5669 5671 5673 5674 5675 5678 5680 5680 5682 5683 5682 5681 5680 5677 5676 5674
5561 5559 5558 5554 5549 5542 5533 5531 5533 5536 5540 5545 5553 5562 5573 5581 5588 5594 5608 5615 5628 5641 5652 5658 5664 5666 5665 5667 5667 5669 5671 5672 5675 5678 5678 5679 5680 5680 5678 5678 5676 5675 5673
5560 5553 5548 5544 5538 5530 5523 5516 5516 5516 5522 5525 5533 5543 5551 5563 5574 5580 5595 5606 5620 5634 5642 5648 5658 5664 5664 5663 5663 5666 5670 5672 5674 5676 5677 5677 5678 5677 5676 5676 5675 5673 5672
5554 5548 5541 5533 5524 5514 5509 5502 5497 5498 5501 5505 5513 5526 5531 5542 5556 5570 5580 5594 5607 5619 5630 5633 5645 5659 5661 5662 5660 5663 5666 5670 5671 5675 5675 5675 5675 5675 5674 5675 5673 5672 5670
5549 5542 5531 5521 5510 5499 5491 5483 5478 5474 5477 5486 5492 5504 5515 5524 5538 5555 5565 5579 5594 5605 5618 5629 5637 5647 5654 5658 5658 5661 5664 5667 5667 5671 5672 5672 5673 5673 5673 5673 5672 5671 5670
5544 5532 5519 5505 5493 5480 5463 5453 5446 5445 5447 5457 5469 5480 5494 5505 5521 5538 5552 5565 5580 5592 5606 5618 5629 5638 5649 5652 5655 5656 5660 5662 5663 5667 5669 5668 5669 5669 5670 5672 5670 5668 5669
5535 5519 5502 5488 5470 5452 5435 5425 5418 5414 5413 5422 5439 5453 5470 5485 5499 5518 5537 5553 5568 5580 5595 5608 5622 5632 5641 5649 5652 5653 5656 5658 5659 5662 5663 5666 5666 5666 5666 5669 5668 5667 5666
5523 5506 5486 5464 5441 5426 5415 5403 5393 5387 5384 5391 5410 5426 5444 5467 5481 5499 5518 5536 5554 5571 5584 5599 5612 5626 5633 5644 5648 5649 5652 5655 5657 5657 5658 5661 5661 5662 5663 5665 5665 5665 5664
5514 5494 5470 5450 5429 5411 5399 5386 5373 5366 5362 5365 5376 5401 5417 5444 5461 5477 5499 5520 5541 5558 5577 5585 5600 5615 5626 5639 5644 5645 5646 5650 5653 5653 5655 5657 5656 5658 5658 5661 5662 5663 5662
5504 5487 5464 5440 5419 5402 5387 5373 5360 5351 5347 5343 5354 5363 5394 5420 5439 5455 5478 5502 5526 5547 5564 5572 5590 5607 5621 5631 5641 5642 5644 5647 5649 5651 5650 5652 5652 5655 5656 5658 5659 5660 5661
5497 5481 5462 5439 5415 5396 5377 5362 5349 5337 5330 5329 5332 5345 5363 5397 5417 5436 5459 5483 5510 5531 5546 5562 5583 5599 5614 5628 5634 5636 5640 5645 5646 5648 5648 5648 5650 5653 5653 5656 5657 5657 5658
5491 5474 5451 5430 5409 5390 5373 5357 5341 5328 5321 5317 5318 5330 5346 5375 5399 5421 5441 5467 5494 5515 5533 5553 5573 5586 5603 5618 5630 5634 5634 5635 5639 5641 5644 5646 5648 5650 5650 5652 5654 5655 5656
5482 5464 5446 5426 5404 5383 5366 5351 5336 5323 5316 5310 5309 5318 5334 5353 5380 5403 5428 5452 5478 5502 5523 5541 5559 5572 5589 5608 5618 5631 5632 5634 5634 5634 5637 5644 5645 5646 5646 5649 5650 5653 5653
5478 5463 5443 5421 5400 5380 5364 5347 5329 5316 5308 5304 5303 5311 5322 5339 5358 5388 5414 5439 5464 5489 5513 5530 5548 5566 5580 5596 5612 5625 5631 5638 5634 5630 5635 5639 5642 5643 5644 5645 5646 5649 5652
5475 5457 5438 5419 5397 5375 5357 5343 5328 5316 5308 5305 5304 5310 5318 5331 5354 5378 5403 5429 5454 5479 5502 5521 5543 5558 5574 5587 5599 5612 5622 5632 5635 5637 5635 5638 5639 5642 5643 5645 5646 5647 5649
5471 5455 5437 5419 5401 5377 5357 5342 5328 5318 5309 5305 5305 5307 5315 5329 5351 5368 5393 5420 5444 5469 5492 5512 5532 5553 5567 5577 5589 5602 5614 5624 5628 5634 5639 5640 5637 5642 5640 5640 5643 5645 5645